Weather History for Clarksville, TN

Change the Weather History Date:

Saturday, October 5, 2013

  Actual Average Record
Temperature  
Mean Temperature 77 °F -  
Max Temperature 87 °F - 94 °F (1951)
Min Temperature 67 °F - 31 °F (1980)
Degree Days  
Heating Degree Days 0    
Month to date heating degree days 0  
Since 1 July heating degree days 8  
Cooling Degree Days 12    
Month to date cooling degree days 48  
Growing Degree Days 28 (Base 50)    
Moisture  
Dew Point 68 °F    
Average Humidity 77    
Maximum Humidity 93    
Minimum Humidity 53    
Precipitation  
Precipitation 0.00 in - 1.05 in (1949)
Month to date precipitation 0.27  
Sea Level Pressure  
Sea Level Pressure 29.98 in    
Wind  
Wind Speed 6 mph (South)    
Max Wind Speed 16 mph    
Max Gust Speed 21 mph    
Visibility 9 miles    
Events Thunderstorm    
T = Trace of Precipitation, MM = Missing Value Source: NWS Daily Summary

Daily Weather History Graph

Daily Weather History Graph

Search for Another Location

Airport:

Trip Planner

Search our weather history database for the weather conditions in past years. The results will help you decide how hot, cold, wet, or windy it might be!

Date:

Astronomy

Oct. 05, 2013 Rise Set
Actual Time 6:48 AM CDT 6:26 PM CDT
Civil Twilight 6:22 AM CDT 6:52 PM CDT
Nautical Twilight 5:52 AM CDT 7:22 PM CDT
Astronomical Twilight 5:22 AM CDT 7:52 PM CDT
Moon 7:25 AM CDT (10/5) 6:48 PM CDT (10/5)
Length of Visible Light 12h 30m
Length of Day
11h 38m
New Moon, 1% of the Moon is Illuminated
Oct 5
New Moon
Oct 11
First Quarter
Oct 18
Full
Oct 26
Last Quarter
Nov 3
New

Hourly Weather History & Observations

Time (CDT) Temp. Heat Index Dew Point Humidity Pressure Visibility Wind Dir Wind Speed Gust Speed Precip Events Conditions
12:52 AM 70.0 °F - 66.9 °F 90% 30.04 in 7.0 mi Calm Calm - N/A   Clear
1:52 AM 68.0 °F - 66.0 °F 93% 30.04 in 5.0 mi SSE 3.5 mph - N/A   Partly Cloudy
2:52 AM 69.1 °F - 66.0 °F 90% 30.03 in 9.0 mi SSE 3.5 mph - N/A   Clear
3:52 AM 69.1 °F - 66.0 °F 90% 30.03 in 9.0 mi Calm Calm - N/A   Clear
4:52 AM 68.0 °F - 66.0 °F 93% 30.03 in 5.0 mi SE 5.8 mph - N/A   Mostly Cloudy
5:52 AM 68.0 °F - 66.0 °F 93% 30.03 in 7.0 mi SE 4.6 mph - N/A   Scattered Clouds
6:52 AM 69.1 °F - 66.0 °F 90% 30.02 in 7.0 mi SE 5.8 mph - N/A   Mostly Cloudy
7:52 AM 71.1 °F - 66.9 °F 87% 30.03 in 10.0 mi SSE 4.6 mph - N/A   Scattered Clouds
8:52 AM 73.9 °F - 68.0 °F 82% 30.04 in 10.0 mi SSE 4.6 mph - N/A   Scattered Clouds
9:52 AM 78.1 °F - 69.1 °F 74% 30.04 in 10.0 mi SSW 8.1 mph - N/A   Scattered Clouds
10:52 AM 81.0 °F 84.4 °F 70.0 °F 69% 30.04 in 10.0 mi SSW 11.5 mph - N/A   Mostly Cloudy
11:52 AM 82.9 °F 87.0 °F 70.0 °F 65% 30.03 in 10.0 mi SW 9.2 mph - N/A   Mostly Cloudy
12:52 PM 84.0 °F 88.4 °F 70.0 °F 63% 30.01 in 10.0 mi SW 10.4 mph - N/A   Mostly Cloudy
1:52 PM 87.1 °F 90.6 °F 68.0 °F 53% 29.96 in 10.0 mi SSW 15.0 mph 20.7 mph N/A   Partly Cloudy
2:52 PM 86.0 °F 90.1 °F 69.1 °F 57% 29.94 in 10.0 mi South 11.5 mph - N/A   Mostly Cloudy
3:52 PM 86.0 °F 89.4 °F 68.0 °F 55% 29.93 in 10.0 mi SW 6.9 mph - N/A   Scattered Clouds
4:30 PM 84.2 °F 87.3 °F 68.0 °F 58% 29.95 in 10.0 mi WSW 4.6 mph - N/A Thunderstorm Mostly Cloudy
4:52 PM 82.0 °F 85.9 °F 70.0 °F 67% 29.93 in 10.0 mi WNW 8.1 mph - N/A   Overcast
5:52 PM 79.0 °F - 71.1 °F 77% 29.92 in 10.0 mi Calm Calm - N/A   Clear
6:52 PM 78.1 °F - 71.1 °F 79% 29.93 in 10.0 mi Calm Calm - N/A   Mostly Cloudy
7:52 PM 75.9 °F - 71.1 °F 85% 29.91 in 10.0 mi Calm Calm - N/A   Partly Cloudy
8:52 PM 78.1 °F - 69.1 °F 74% 29.91 in 10.0 mi South 6.9 mph - N/A   Mostly Cloudy
9:52 PM 77.0 °F - 69.1 °F 76% 29.89 in 10.0 mi South 5.8 mph - N/A   Clear
10:52 PM 73.9 °F - 69.1 °F 85% 29.88 in 10.0 mi SSE 4.6 mph - N/A   Clear
11:52 PM 73.9 °F - 69.1 °F 85% 29.87 in 10.0 mi SSE 4.6 mph - N/A   Mostly Cloudy